UAE662 OMDB-OTHH

Flight info

Callsign UAE662
Flight time N/A
Altitude 22000
Route NABIX P699 OXARI M430 TOSNA
Aircraft B772/H-SDE2E3FGHIJ5LORVWXY/LB1D1

Departure

Time 2026-04-23 21:10
Airport Dubai International Airport (OMDB)

Arrival

Time N/A
Airport Hamad International Airport (OTHH)
Time Latitude Longitude Altitude Speed Heading
2026-04-23 20:32 25.25855 55.36860 49 ft 0 kts 31°
2026-04-23 21:00 25.25852 55.36858 49 ft 2 kts 31°
2026-04-23 21:00 25.25839 55.36849 49 ft 2 kts 31°
2026-04-23 21:01 25.25826 55.36840 49 ft 2 kts 31°
2026-04-23 21:01 25.25813 55.36832 49 ft 2 kts 31°
2026-04-23 21:01 25.25800 55.36823 49 ft 2 kts 31°
2026-04-23 21:01 25.25789 55.36813 48 ft 2 kts 72°
2026-04-23 21:02 25.25789 55.36797 48 ft 2 kts 121°
2026-04-23 21:02 25.25798 55.36783 48 ft 2 kts 124°
2026-04-23 21:02 25.25802 55.36776 48 ft 0 kts 121°
2026-04-23 21:05 25.25799 55.36782 48 ft 2 kts 121°
2026-04-23 21:05 25.25786 55.36804 48 ft 4 kts 121°
2026-04-23 21:05 25.25760 55.36842 49 ft 7 kts 137°
2026-04-23 21:06 25.25698 55.36857 49 ft 11 kts 173°
2026-04-23 21:06 25.25630 55.36914 49 ft 13 kts 122°
2026-04-23 21:06 25.25574 55.37010 50 ft 15 kts 121°
2026-04-23 21:06 25.25515 55.37121 52 ft 17 kts 120°
2026-04-23 21:07 25.25445 55.37245 52 ft 19 kts 123°
2026-04-23 21:07 25.25368 55.37384 52 ft 22 kts 121°
2026-04-23 21:07 25.25289 55.37525 52 ft 23 kts 120°
2026-04-23 21:07 25.25201 55.37686 55 ft 24 kts 121°
2026-04-23 21:08 25.25107 55.37855 55 ft 26 kts 120°
2026-04-23 21:08 25.25043 55.37971 55 ft 16 kts 122°
2026-04-23 21:08 25.24989 55.38066 56 ft 10 kts 122°
2026-04-23 21:08 25.24951 55.38107 57 ft 4 kts 158°
2026-04-23 21:09 25.24923 55.38110 57 ft 1 kts 187°
2026-04-23 21:09 25.24902 55.38099 57 ft 5 kts 218°
2026-04-23 21:09 25.24893 55.38093 57 ft 4 kts 209°
2026-04-23 21:09 25.24844 55.38055 58 ft 12 kts 234°
2026-04-23 21:10 25.24860 55.37931 57 ft 22 kts 301°
2026-04-23 21:10 25.24998 55.37690 55 ft 76 kts 301°
2026-04-23 21:10 25.25461 55.36868 85 ft 170 kts 303°
2026-04-23 21:10 25.26175 55.35677 906 ft 197 kts 304°
2026-04-23 21:11 25.26777 55.34570 2332 ft 158 kts 304°
2026-04-23 21:11 25.27325 55.33562 3057 ft 160 kts 305°
2026-04-23 21:11 25.27976 55.32381 3283 ft 199 kts 303°
2026-04-23 21:11 25.28730 55.30998 3870 ft 219 kts 301°
2026-04-23 21:12 25.29210 55.29382 3958 ft 224 kts 272°
2026-04-23 21:12 25.28859 55.27709 3965 ft 227 kts 247°
2026-04-23 21:12 25.28176 55.26147 3965 ft 227 kts 244°
2026-04-23 21:12 25.27476 55.24558 3965 ft 229 kts 245°
2026-04-23 21:13 25.26797 55.22975 3964 ft 228 kts 245°
2026-04-23 21:13 25.26172 55.21342 3972 ft 247 kts 257°
2026-04-23 21:13 25.25937 55.19364 3972 ft 268 kts 265°
2026-04-23 21:13 25.25785 55.17269 3965 ft 274 kts 266°
2026-04-23 21:14 25.25638 55.15178 3970 ft 276 kts 266°
2026-04-23 21:14 25.25491 55.13076 4229 ft 274 kts 266°
2026-04-23 21:14 25.25342 55.10965 4830 ft 275 kts 266°
2026-04-23 21:14 25.25196 55.08888 5441 ft 274 kts 265°
2026-04-23 21:15 25.25050 55.06810 6059 ft 273 kts 264°
2026-04-23 21:15 25.24902 55.04731 6660 ft 273 kts 264°
2026-04-23 21:15 25.24754 55.02637 7271 ft 275 kts 264°
2026-04-23 21:15 25.24606 55.00550 7871 ft 276 kts 264°
2026-04-23 21:16 25.24456 54.98446 8476 ft 276 kts 264°
2026-04-23 21:16 25.24305 54.96333 9087 ft 276 kts 263°
2026-04-23 21:16 25.24155 54.94233 9683 ft 278 kts 263°
2026-04-23 21:16 25.24001 54.92095 10284 ft 281 kts 264°
2026-04-23 21:17 25.23845 54.89930 10891 ft 283 kts 264°
2026-04-23 21:17 25.23690 54.87780 11490 ft 285 kts 264°
2026-04-23 21:17 25.23534 54.85621 12086 ft 288 kts 264°
2026-04-23 21:17 25.23374 54.83406 12694 ft 290 kts 264°
2026-04-23 21:18 25.23214 54.81209 13294 ft 291 kts 264°
2026-04-23 21:18 25.23057 54.78950 13902 ft 294 kts 267°
2026-04-23 21:18 25.23141 54.76709 14465 ft 304 kts 273°
2026-04-23 21:18 25.23319 54.74322 15108 ft 318 kts 274°
2026-04-23 21:19 25.23509 54.71876 15987 ft 323 kts 274°
2026-04-23 21:19 25.23699 54.69418 16945 ft 325 kts 275°
2026-04-23 21:19 25.23889 54.66948 17846 ft 328 kts 275°
2026-04-23 21:19 25.24083 54.64442 18684 ft 333 kts 275°
2026-04-23 21:20 25.24280 54.61877 19478 ft 339 kts 275°
2026-04-23 21:20 25.24479 54.59284 20254 ft 344 kts 275°
2026-04-23 21:20 25.24681 54.56650 21104 ft 347 kts 275°
2026-04-23 21:20 25.24883 54.54016 21684 ft 349 kts 275°
2026-04-23 21:21 25.25088 54.51327 21813 ft 350 kts 275°
2026-04-23 21:21 25.25291 54.48647 21819 ft 348 kts 274°
2026-04-23 21:21 25.25492 54.46007 21816 ft 347 kts 275°
2026-04-23 21:21 25.25693 54.43356 21820 ft 347 kts 275°
2026-04-23 21:22 25.25895 54.40678 21818 ft 347 kts 274°
2026-04-23 21:22 25.26092 54.38059 21813 ft 347 kts 275°
2026-04-23 21:22 25.26293 54.35389 21813 ft 347 kts 275°
2026-04-23 21:22 25.26492 54.32735 21821 ft 347 kts 274°
2026-04-23 21:23 25.26691 54.30070 21820 ft 347 kts 274°
2026-04-23 21:23 25.26887 54.27442 21816 ft 347 kts 274°
2026-04-23 21:23 25.27085 54.24778 21809 ft 346 kts 274°
2026-04-23 21:23 25.27281 54.22145 21813 ft 347 kts 274°
2026-04-23 21:24 25.27477 54.19492 21814 ft 347 kts 274°
2026-04-23 21:24 25.27675 54.16813 21816 ft 347 kts 274°
2026-04-23 21:24 25.27870 54.14169 21817 ft 348 kts 274°
2026-04-23 21:24 25.28065 54.11510 21815 ft 347 kts 274°
2026-04-23 21:25 25.28260 54.08853 21822 ft 348 kts 274°
2026-04-23 21:25 25.28452 54.06227 21828 ft 346 kts 274°
2026-04-23 21:25 25.28646 54.03571 21832 ft 347 kts 274°
2026-04-23 21:25 25.28841 54.00901 21834 ft 346 kts 274°
2026-04-23 21:26 25.29031 53.98282 21835 ft 347 kts 274°
2026-04-23 21:26 25.29223 53.95626 21834 ft 347 kts 274°
2026-04-23 21:26 25.29415 53.92975 21834 ft 347 kts 274°
2026-04-23 21:26 25.29607 53.90312 21833 ft 347 kts 274°
2026-04-23 21:27 25.29798 53.87646 21834 ft 347 kts 274°
2026-04-23 21:27 25.29987 53.85021 21830 ft 345 kts 274°
2026-04-23 21:27 25.30175 53.82383 21832 ft 345 kts 274°
2026-04-23 21:27 25.30364 53.79732 21832 ft 345 kts 274°
2026-04-23 21:28 25.30552 53.77097 21832 ft 345 kts 274°
2026-04-23 21:28 25.30741 53.74437 21835 ft 347 kts 274°
2026-04-23 21:28 25.30929 53.71779 21835 ft 346 kts 274°
2026-04-23 21:28 25.31116 53.69141 21839 ft 346 kts 273°
2026-04-23 21:29 25.31300 53.66526 21835 ft 346 kts 274°
2026-04-23 21:29 25.31486 53.63872 21833 ft 346 kts 274°
2026-04-23 21:29 25.31674 53.61189 21834 ft 346 kts 274°
2026-04-23 21:29 25.31859 53.58549 21837 ft 346 kts 274°
2026-04-23 21:30 25.32043 53.55914 21838 ft 345 kts 274°
2026-04-23 21:30 25.32228 53.53251 21837 ft 344 kts 273°
2026-04-23 21:30 25.32412 53.50594 21839 ft 345 kts 273°
2026-04-23 21:30 25.32595 53.47951 21835 ft 344 kts 274°
2026-04-23 21:31 25.32775 53.45336 21836 ft 344 kts 273°
2026-04-23 21:31 25.32956 53.42712 21835 ft 344 kts 273°
2026-04-23 21:31 25.33138 53.40069 21837 ft 344 kts 274°
2026-04-23 21:31 25.33318 53.37429 21837 ft 343 kts 273°
2026-04-23 21:32 25.33498 53.34801 21838 ft 344 kts 273°
2026-04-23 21:32 25.33678 53.32160 21844 ft 343 kts 273°
2026-04-23 21:32 25.33855 53.29549 21846 ft 343 kts 273°
2026-04-23 21:32 25.34034 53.26914 21849 ft 343 kts 273°
2026-04-23 21:33 25.34209 53.24317 21849 ft 343 kts 273°
2026-04-23 21:33 25.34386 53.21688 21851 ft 343 kts 272°
2026-04-23 21:33 25.34564 53.19044 21851 ft 344 kts 273°
2026-04-23 21:33 25.34716 53.16416 21852 ft 343 kts 269°
2026-04-23 21:34 25.34513 53.13814 21851 ft 342 kts 260°
2026-04-23 21:34 25.34101 53.11212 21854 ft 344 kts 259°
2026-04-23 21:34 25.33676 53.08623 21853 ft 343 kts 259°
2026-04-23 21:34 25.33246 53.06025 21852 ft 343 kts 259°
2026-04-23 21:35 25.32819 53.03452 21853 ft 344 kts 259°
2026-04-23 21:35 25.32386 53.00853 21855 ft 343 kts 259°
2026-04-23 21:35 25.31954 52.98251 21855 ft 343 kts 259°
2026-04-23 21:35 25.31528 52.95694 21852 ft 342 kts 259°
2026-04-23 21:36 25.30666 52.90550 21856 ft 340 kts 259°
2026-04-23 21:36 25.30233 52.87969 21853 ft 341 kts 259°
2026-04-23 21:36 25.29799 52.85383 21853 ft 340 kts 259°
2026-04-23 21:37 25.29374 52.82851 21855 ft 341 kts 259°
2026-04-23 21:37 25.28939 52.80267 21853 ft 341 kts 259°
2026-04-23 21:37 25.28503 52.77681 21857 ft 341 kts 259°
2026-04-23 21:37 25.28073 52.75126 21857 ft 341 kts 259°
2026-04-23 21:38 25.27640 52.72563 21853 ft 341 kts 259°
2026-04-23 21:38 25.27346 52.69959 21853 ft 341 kts 268°
2026-04-23 21:38 25.27521 52.67347 21850 ft 342 kts 278°
2026-04-23 21:38 25.28125 52.64802 21856 ft 343 kts 284°
2026-04-23 21:39 25.28825 52.62308 21851 ft 344 kts 285°
2026-04-23 21:39 25.29536 52.59802 21848 ft 344 kts 285°
2026-04-23 21:39 25.30255 52.57264 21846 ft 345 kts 285°
2026-04-23 21:39 25.31198 52.54819 21843 ft 347 kts 295°
2026-04-23 21:40 25.32353 52.52492 21849 ft 348 kts 296°
2026-04-23 21:40 25.33519 52.50177 21850 ft 347 kts 296°
2026-04-23 21:40 25.34696 52.47842 21853 ft 348 kts 296°
2026-04-23 21:40 25.35879 52.45490 21849 ft 347 kts 296°
2026-04-23 21:41 25.37046 52.43166 21851 ft 348 kts 296°
2026-04-23 21:41 25.38212 52.40843 21849 ft 347 kts 296°
2026-04-23 21:41 25.39390 52.38496 21847 ft 346 kts 296°
2026-04-23 21:41 25.40559 52.36163 21850 ft 347 kts 296°